Regional Weather Roundup
Issued by NWS

Home | Current Version | Previous Version | Graphics & Text | Print | Product List | Glossary Off
Versions: 1 2 3 4 5 6 7 8 9 10 11 12 13 14 15 16 17 18 19 20 21 22 23 24 25 26 27 28 29 30 31 32 33 34 35 36 37 38 39 40 41 42 43 44 45 46 47 48 49 50

000
ASUS43 KLSX 252207
RWRMO

WEATHER SUMMARY FOR MISSOURI
NATIONAL WEATHER SERVICE SPRINGFIELD MO
500 PM CDT THU AUG 25 2016

NOTE: "FAIR" INDICATES FEW OR NO CLOUDS BELOW 12,000 FEET WITH NO
       SIGNIFICANT WEATHER AND/OR OBSTRUCTIONS TO VISIBILITY.
       CURRENT SKY AND/OR WEATHER CONDITIONS ARE NOT AVAILABLE FOR
       CHILLICOTHE AND FARMINGTON.

MOZ001>031-035>038-043-044-053-054-252300-
...NORTHERN AND WESTERN MISSOURI...

CITY           SKY/WX    TMP DP  RH WIND       PRES   REMARKS
KANSAS CTY INT PTSUNNY   79  68  69 N12       30.05S
KANSAS C DTWN  CLOUDY    84  68  58 NW5       30.02S
LEE`S SUMMIT   CLOUDY    84  69  60 W7        30.04F
ST JOSEPH      PTSUNNY   77  66  68 NE13      30.06F
CHILLICOTHE      N/A     79  71  76 N10       30.06F
KIRKSVILLE     CLOUDY    76  68  76 N9        30.07F

$$
MOZ066>068-077>081-088>096-101>105-252300-
...SOUTHWEST MISSOURI...

CITY           SKY/WX    TMP DP  RH WIND       PRES   REMARKS
SPRINGFIELD    SUNNY     90  68  48 S15       30.02F HX  94
JOPLIN         PTSUNNY   77  71  82 E6        30.00F
BRANSON        PTSUNNY   90  72  55 SE6       30.07F HX  96

$$
MOZ032>034-039>042-045>050-055>058-069>072-252300-
...CENTRAL MISSOURI...

CITY           SKY/WX    TMP DP  RH WIND       PRES   REMARKS
COLUMBIA       MOSUNNY   85  73  67 CALM      30.01F HX  91
JEFFERSON CITY PTSUNNY   86  73  65 SE3       30.00F HX  93
ROLLA          SUNNY     89  73  59 S5        30.03F HX  97
SEDALIA        CLOUDY    86  73  65 W3        30.02F HX  93
WHITEMAN AFB   PTSUNNY   86  73  65 W5        30.01F HX  92
OSAGE BEACH    TSTM      77  68  73 SE6G21    30.06R

$$
MOZ051-052-059>065-252300-
...EAST CENTRAL MISSOURI...

CITY           SKY/WX    TMP DP  RH WIND       PRES   REMARKS
ST LOUIS INTL  MOSUNNY   94  71  47 W9        30.02F HX 101
SPIRIT OF STL  PTSUNNY   91  73  55 SW6       30.00F HX  99
ST CHARLES     MOSUNNY   91  72  53 SW6       30.00F HX  98

$$
MOZ072>076-082>087-097>100-106>115-252300-
...SOUTH CENTRAL AND SOUTHEAST MISSOURI...

CITY           SKY/WX    TMP DP  RH WIND       PRES   REMARKS
CAPE GIRARDEAU PTSUNNY   90  71  53 S8        30.03F HX  96
FARMINGTON     MOSUNNY   91  73  55 S9        30.05F HX  99
POPLAR BLUFF   CLOUDY    90  73  57 S7        30.03F HX  98
WEST PLAINS    MOSUNNY   88  69  53 S6        30.09F HX  92

$$



USA.gov is the U.S. government's official web portal to all federal, state and local government web resources and services.